Regional Weather Roundup
Issued by NWS Albany, NY

Home | Current Version | Previous Version | Text Only | Print | Product List | Glossary On
Versions: 1 2 3 4 5 6 7 8 9 10 11 12 13 14 15 16 17 18 19 20 21 22 23 24 25 26 27
000
ASUS41 KALY 230010
RWRALY

NEW YORK STATE HOURLY WEATHER ROUNDUP
NATIONAL WEATHER SERVICE ALBANY NY
800 PM EDT TUE APR 22 2014

NOTE: "FAIR" INDICATES FEW OR NO CLOUDS BELOW 12,000 FEET WITH NO
SIGNIFICANT WEATHER AND/OR NO OBSTRUCTIONS TO VISIBILITY.

NYZ032-033-038>043-046>054-057>066-NYZ062>081-230100-
EAST


CITY           SKY/WX    TMP DP  RH WIND       PRES   REMARKS
ALBANY         MOCLDY    58  51  78 W7        29.51R
GLENS FALLS    MOCLDY    57  53  86 S7        29.48R
POUGHKEEPSIE   LGT RAIN  62  51  67 SW6       29.51R
NEWBURGH       MOCLDY    59  54  82 W9        29.54R
MONTGOMERY     CLOUDY    58  50  75 SW6       29.52R
WHITE PLAINS   LGT RAIN  56  50  80 CALM      29.53R
ISLIP          CLOUDY    53  47  79 S5        29.52F
NEW YORK CITY  CLOUDY    63  49  60 W3        29.53R
CENTRAL PARK   LGT RAIN  64  52  64 W8        29.56R
$$

NYZ005>009-017-018-044>046-055-056-230100-
CENTRAL


CITY           SKY/WX    TMP DP  RH WIND       PRES   REMARKS
FULTON         CLOUDY    46  40  79 W17G23    29.59R
SYRACUSE       CLOUDY    50  43  77 NW14G22   29.59R
ROME           CLOUDY    53  48  83 W10G23    29.55R
ELMIRA         MOCLDY    55  43  63 NW18G24   29.58R
BINGHAMTON     CLOUDY    54  51  90 NW7       29.54R
MONTICELLO     PTCLDY    54  48  82 CALM      29.55F
$$

NYZ026>034-041>043-230100-
NORTH


CITY           SKY/WX    TMP DP  RH WIND       PRES   REMARKS
WATERTOWN      CLOUDY    46  39  76 SW9       29.54R
FORT DRUM      NOT AVBL
MASSENA        CLOUDY    51  51 100 SW7       29.49R FOG
SARANAC LAKE   CLOUDY    48  46  93 SW8       29.46S
PLATTSBURGH    CLOUDY    50  49  96 CALM      29.45R
$$

NYZ001>004-010>016-019>021-230100-
WEST


CITY           SKY/WX    TMP DP  RH WIND       PRES   REMARKS
NIAGARA FALLS  MOCLDY    43  34  70 NW20      29.69R
BUFFALO        CLOUDY    44  36  73 W7        29.69R
DUNKIRK        CLOUDY    42  34  73 W10       29.73S
JAMESTOWN      CLOUDY    39  32  75 W12       29.72S WCI  32
WELLSVILLE     CLOUDY    43  36  76 W24G30    29.66R
ROCHESTER      CLOUDY    48  40  73 W17G29    29.64R
PENN YAN       CLOUDY    51  44  77 NW7       29.61R
$$

             KEY
       WCI = WIND CHILL INDEX
       VSB = VISIBILITY
       HX  = HEAT INDEX
$$



USA.gov is the U.S. government's official web portal to all federal, state and local government web resources and services.